This demonstration page uses our WeatherBlox Daily Observations layout. Learn more.

Hourly Observations for January 9, 2020

Temp ( °F °C ) Dew Point ( °F °C ) Humidity (%) Winds ( mph kmh ) Pressure ( in mb ) Visibility ( mi km ) Precip ( " mm )
12:54 am 00:54 Clear 45 7.2 25 -3.9 46 46 S 15 24 29.64 1004 10 16.0934 0 0
1:54 am 01:54 Clear 46 7.8 27 -2.8 47 47 S 16 26 29.62 1003 10 16.0934 0 0
2:54 am 02:54 Clear 45 7.2 28 -2.2 52 52 S 16 26 29.6 1002 10 16.0934 0 0
3:54 am 03:54 Clear 46 7.8 31 -0.6 56 56 S 15 24 29.57 1001 10 16.0934 0 0
4:54 am 04:54 Clear 43 6.1 33 0.6 68 68 S 14 22 29.56 1001 10 16.0934 0 0
5:54 am 05:54 Clear 47 8.3 36 2.2 66 66 S 16 26 29.55 1001 10 16.0934 0 0
6:54 am 06:54 Clear 46 7.8 37 2.8 71 71 S 15 24 29.55 1001 10 16.0934 0 0
7:54 am 07:54 Sunny 44 6.7 35 1.7 71 71 SW 20 31 29.59 1002 10 16.0934 0 0
8:54 am 08:54 Sunny 41 5 32 0 70 70 WSW 13 20 29.64 1004 10 16.0934 0 0
9:54 am 09:54 Sunny 40 4.4 28 -2.2 63 63 W 13 20 29.7 1006 10 16.0934 0 0
10:54 am 10:54 Sunny 39 3.9 27 -2.8 62 62 W 14 22 29.78 1009 10 16.0934 0 0
11:54 am 11:54 Sunny 43 6.1 28 -2.2 56 56 W 15 24 29.75 1008 10 16.0934 0 0
12:54 pm 12:54 Sunny 44 6.7 29 -1.7 55 55 W 14 22 29.78 1008 10 16.0934 0 0
1:54 pm 13:54 Sunny 45 7.2 29 -1.7 54 54 W 9 15 29.81 1009 10 16.0934 0 0
2:54 pm 14:54 Sunny 46 7.8 29 -1.7 51 51 W 9 15 29.83 1010 10 16.0934 0 0
3:54 pm 15:54 Sunny 47 8.3 29 -1.7 50 50 NW 10 17 29.86 1011 10 16.0934 0 0
4:54 pm 16:54 Sunny 44 6.7 29 -1.7 55 55 NW 6 9 29.89 1012 10 16.0934 0 0
5:54 pm 17:54 Clear 36 2.2 27 -2.8 70 70 N 7 11 29.92 1013 10 16.0934 0 0
6:54 pm 18:54 Clear 33 0.6 26 -3.3 75 75 N 7 11 29.96 1014 10 16.0934 0 0
7:54 pm 19:54 Clear 30 -1.1 24 -4.4 79 79 N 6 9 29.99 1016 10 16.0934 0 0
8:54 pm 20:54 Clear 30 -1.1 24 -4.4 79 79 N 12 19 30.01 1016 10 16.0934 0 0
9:54 pm 21:54 Clear 30 -1.1 24 -4.4 79 79 N 15 24 30.03 1017 10 16.0934 0 0
10:54 pm 22:54 Clear 29 -1.7 24 -4.4 82 82 NNE 12 19 30.04 1017 10 16.0934 0 0
11:54 pm 23:54 Clear 27 -2.8 23 -5 85 85 NNE 12 19 30.06 1018 10 16.0934 0 0

Powered by AerisWeather